RH
44 42 38 35 31 26 25 25 25 27 28 30 31 33 34 33 33 35 38 41 45 47 47 46 44 41 39 37 40 41 46 55 55 53 53 54 52 48 43 42 39 37 35
41 43 44 41 36 32 29 28 29 31 32 33 33 34 35 37 38 39 43 44 46 48 47 46 42 44 44 51 53 43 58 56 58 59 60 62 61 57 52 48 46 40 37
41 43 43 44 41 39 36 34 35 35 36 37 37 38 39 40 41 44 45 46 46 47 51 43 45 41 53 45 43 42 36 43 45 55 65 67 65 63 60 55 50 47 41
45 43 43 44 44 44 44 43 44 44 43 43 42 42 42 42 42 42 42 44 45 46 44 40 43 45 42 41 38 35 33 34 36 40 53 66 66 63 62 58 56 53 53
55 46 43 44 46 48 50 51 51 51 49 49 46 47 42 43 43 43 42 43 45 43 40 41 42 42 44 41 38 34 33 35 38 40 42 47 57 65 64 65 66 64 63
61 52 49 45 48 52 53 54 55 53 52 51 48 47 46 45 42 39 40 39 40 40 42 41 47 49 49 45 39 37 39 39 40 41 40 42 43 46 60 72 69 68 68
65 62 57 51 50 52 50 53 52 54 53 53 51 42 40 38 38 37 37 36 35 36 40 44 48 52 55 48 41 40 43 44 42 37 35 35 35 36 40 48 67 72 70
79 72 64 55 52 56 58 61 57 52 50 48 47 47 45 43 39 39 40 39 40 40 44 46 55 53 52 47 47 42 44 42 40 37 35 33 32 33 36 38 40 53 81
93 85 85 79 77 68 65 61 60 54 52 51 51 52 52 50 47 46 46 43 41 46 46 51 55 54 53 50 56 48 47 40 39 36 33 32 32 34 36 38 41 44 46
85 85 85 84 83 76 71 67 62 58 56 52 51 47 45 45 49 45 43 42 43 45 47 50 53 54 52 51 56 51 51 46 41 36 32 32 36 39 40 38 36 38 41
87 89 87 77 74 71 67 61 58 55 52 51 49 47 47 44 43 44 44 45 44 46 51 52 51 54 54 51 52 58 52 46 40 37 36 39 41 43 39 36 35 34 33
90 88 79 76 73 67 62 59 57 57 52 51 50 48 46 42 43 43 44 46 47 49 53 55 59 55 54 54 51 54 51 45 39 38 41 46 45 42 41 37 35 33 31
83 83 79 74 67 61 63 60 56 56 53 51 51 50 48 49 50 48 51 50 53 56 56 55 55 58 57 54 54 55 48 45 42 41 42 45 41 36 37 40 38 35 30
82 81 77 66 61 61 60 61 62 67 66 58 55 56 55 54 51 50 52 52 56 57 56 61 56 59 55 55 58 55 52 47 45 42 40 40 35 36 37 37 34 32 30
81 78 69 64 63 70 72 73 74 71 66 58 54 54 51 52 51 49 50 53 57 59 56 55 61 57 58 59 57 55 50 48 46 42 39 38 36 35 37 36 34 34 31
77 71 69 71 76 81 81 77 75 70 65 58 56 52 52 52 51 51 52 52 54 59 58 55 57 54 57 61 59 54 51 50 43 40 38 36 38 36 35 29 25 27 29
77 82 86 88 89 81 76 71 66 62 59 59 58 58 58 55 53 51 54 55 59 59 57 60 61 61 61 59 57 56 57 45 31 31 31 35 30 27 25 23 24 26 26
82 84 86 86 82 81 69 66 64 62 58 57 56 56 58 59 56 56 57 56 57 58 59 58 58 61 60 58 60 58 56 43 36 27 26 25 23 20 21 24 28 30 34
72 72 77 73 71 65 58 55 54 54 53 52 52 54 55 58 61 62 61 61 59 59 58 58 61 59 61 63 61 53 47 40 31 28 27 25 23 22 23 26 29 32 36
63 63 61 58 55 52 49 49 49 48 49 50 52 54 56 58 60 64 69 70 67 65 62 60 62 64 67 65 46 43 42 34 30 25 24 24 24 23 22 23 26 29 33
57 54 51 51 50 51 51 50 51 52 52 54 56 58 59 63 65 67 69 71 74 73 72 70 73 70 53 43 41 38 33 30 28 27 28 29 28 26 25 24 23 23 25
54 54 53 53 53 51 51 52 53 55 57 59 62 64 66 68 69 72 76 76 79 78 81 74 58 48 46 39 36 39 36 35 34 35 34 33 30 28 26 25 24 22 22
56 55 53 51 53 54 55 57 59 60 62 65 69 72 74 73 66 57 52 54 55 50 46 47 49 46 41 46 46 39 42 42 40 37 36 34 32 30 29 28 26 25 25
59 56 56 57 58 60 63 64 64 65 66 66 69 76 76 63 53 51 50 49 49 50 49 46 49 53 50 53 49 49 48 45 42 38 37 36 34 33 32 32 30 30 30
62 62 62 64 66 69 69 67 68 68 70 71 78 74 60 54 51 52 49 52 56 57 55 51 52 52 56 52 54 54 51 48 43 41 40 39 38 38 38 37 36 35 36
69 70 71 69 67 67 66 67 69 72 75 74 62 56 55 54 53 54 57 60 63 61 61 60 61 58 56 59 58 58 58 54 48 45 44 43 44 43 43 42 42 42 41